Flag for Germany Weather past 2 weeks in Troisdorf, North Rhine-Westphalia, Germany

Now
50 °F

Scattered clouds.


Feels Like: 47 °F
Forecast: 45 / 69 °F
Wind: 7 mph from Southeast

Location: Koeln / Bonn

Current Time: May 30, 2015 at 10:55:55 PM

Latest Report: May 30, 2015 at 10:20 PM


Visibility: N/A

Pressure: 30.04 "Hg

Humidity: 76%

Dew point: 43 °F

Location of TroisdorfLocation

Historic Weather in Troisdorf — Graph

°F

Troisdorf temperature yesterday

Maximum temperature yesterday: 63 °F (at 1:20 PM)
Minimum temperature yesterday: 46 °F (at 4:50 AM)
Average temperature yesterday: 56 °F

Past Weeks' High & Low Weather Summary

 TemperatureHumidityPressure
High73 °F (May 18, 4:20 PM)94% (May 16, 8:20 PM)30.33 "Hg (May 16, 8:20 PM)
Low39 °F (May 17, 4:50 AM)30% (May 22, 1:50 PM)29.65 "Hg (May 18, 7:20 PM)
Average55 °F65%30.06 "Hg
* Reported May 15 9:20 PM — May 30 9:20 PM, Troisdorf, Weather by CustomWeather, © 2015

Note: Actual official high and low records may vary slightly from our data, if they occured in-between our weather recording intervals... More about our weather records

Advertising

Troisdorf weather history for previous 24 hours

 ConditionsComfort  
Time TempWeatherWind HumidityBarometerVisibility
9:20 PM
Sat, May 30
52 °FPartly sunny.6 mph72%30.04 "HgN/A
8:50 PM52 °FPartly sunny.6 mph72%30.04 "HgN/A
8:20 PM54 °FPartly sunny.6 mph63%30.04 "HgN/A
7:50 PM54 °FBroken clouds.6 mph63%30.04 "HgN/A
7:20 PM55 °FScattered clouds.3 mph59%30.04 "HgN/A
6:50 PM54 °FSprinkles. Broken clouds.2 mph67%30.04 "HgN/A
6:20 PM54 °FPartly sunny.3 mph63%30.04 "HgN/A
5:50 PM54 °FBroken clouds.5 mph63%30.04 "HgN/A
5:20 PM54 °FSprinkles. Partly sunny.3 mph63%30.04 "HgN/A
4:50 PM54 °FBroken clouds.6 mph63%30.01 "HgN/A
4:20 PM54 °FSprinkles. Broken clouds.9 mph58%30.01 "HgN/A
3:50 PM54 °FBroken clouds.10 mph63%30.01 "HgN/A
3:20 PM54 °FPartly sunny.15 mph63%30.01 "HgN/A
2:50 PM52 °FSprinkles. Broken clouds.20 mph62%30.01 "HgN/A
2:20 PM59 °FScattered showers. Broken clouds.20 mph39%29.98 "HgN/A
1:50 PM61 °FScattered showers. Broken clouds.22 mph42%29.95 "HgN/A
1:20 PM61 °FScattered showers. Scattered clouds.10 mph45%29.95 "HgN/A
12:50 PM59 °FScattered showers. Scattered clouds.16 mph45%29.95 "HgN/A
12:20 PM57 °FSprinkles. Scattered clouds.13 mph48%29.95 "HgN/A
11:50 AM59 °FScattered showers. Scattered clouds.17 mph48%29.95 "HgN/A
11:20 AM57 °FScattered clouds.14 mph48%29.95 "HgN/A
10:50 AM57 °FScattered clouds.15 mph55%29.95 "HgN/A
10:20 AM54 °FScattered clouds.15 mph58%29.95 "HgN/A
9:50 AM54 °FScattered clouds.13 mph67%29.92 "HgN/A
9:20 AM52 °FScattered clouds.10 mph77%29.92 "HgN/A
8:50 AM52 °FScattered clouds.13 mph82%29.92 "HgN/A
8:20 AM50 °FScattered clouds.10 mph88%29.92 "HgN/A
7:50 AM50 °FScattered clouds.9 mph88%29.89 "HgN/A
7:20 AM50 °FPassing clouds.7 mph88%29.89 "HgN/A
6:50 AM50 °FScattered clouds.8 mph88%29.89 "HgN/A
6:20 AM48 °FPassing clouds.6 mph87%29.86 "HgN/A
5:50 AM48 °FSprinkles. Partly cloudy.7 mph87%29.86 "HgN/A
5:20 AM48 °FPassing clouds.6 mph87%29.86 "HgN/A
4:50 AM48 °FPassing clouds.7 mph87%29.83 "HgN/A
4:20 AM48 °FPassing clouds.9 mph87%29.83 "HgN/A
3:50 AM48 °FPartly cloudy.7 mph87%29.83 "HgN/A
3:20 AM48 °FPassing clouds.6 mph87%29.83 "HgN/A
2:50 AM48 °FLight rain. Passing clouds.3 mph94%29.83 "HgN/A
2:20 AM48 °FPassing clouds.3 mph87%29.83 "HgN/A
1:50 AM48 °FPassing clouds.6 mph87%29.83 "HgN/A
1:20 AM48 °FLight rain. Passing clouds.7 mph87%29.83 "HgN/A
12:50 AM48 °FRain. Partly cloudy.3 mph87%29.83 "HgN/A
12:20 AM48 °FRain. Passing clouds.7 mph87%29.83 "HgN/A
11:50 PM
Fri, May 29
48 °FLight rain. Passing clouds.16 mph87%29.83 "HgN/A
11:20 PM52 °FLight rain. Passing clouds.21 mph77%29.80 "HgN/A
10:50 PM59 °FLight rain. Passing clouds.8 mph51%29.77 "HgN/A
10:20 PM59 °FLight rain. Partly sunny.13 mph51%29.77 "HgN/A
Weather by CustomWeather, © 2015

See weather overviewHow to use our weather pages